| time (UTC) | temp F | wind direction | speed MPH | gust MPH | rain 1hr in | rain 24hr in | rain mn in | humidity % | barometer mb |
| 20260502123038 | 76 | 228 | 2.0 | 2.0 | 0.00 | 0.00 | 0.00 | 41 | 1009.0 |
| 20260502122038 | 77 | 228 | 4.0 | 4.0 | 0.00 | 0.00 | 0.00 | 42 | 1009.0 |
| 20260502121038 | 77 | 198 | 2.0 | 2.0 | 0.00 | 0.00 | 0.00 | 40 | 1009.0 |
| 20260502115038 | 77 | 126 | 1.0 | 1.0 | 0.00 | 0.00 | 0.00 | 42 | 1010.0 |
| 20260502114038 | 77 | 204 | 0.0 | 0.0 | 0.00 | 0.00 | 0.00 | 42 | 1010.0 |
| 20260502113038 | 77 | 234 | 2.0 | 2.0 | 0.00 | 0.00 | 0.00 | 40 | 1010.0 |
| 20260502112038 | 76 | 210 | 2.0 | 2.0 | 0.00 | 0.00 | 0.00 | 40 | 1010.0 |
| 20260502111038 | 76 | 270 | 2.0 | 2.0 | 0.00 | 0.00 | 0.00 | 41 | 1010.0 |
| 20260502110038 | 77 | 41 | 2.0 | 2.0 | 0.00 | 0.00 | 0.00 | 39 | 1010.0 |
| 20260502105038 | 76 | 150 | 3.0 | 3.0 | 0.00 | 0.00 | 0.00 | 39 | 1011.0 |
| 20260502104038 | 74 | 276 | 0.0 | 0.0 | 0.00 | 0.00 | 0.00 | 43 | 1011.0 |
| 20260502103038 | 77 | 213 | 2.0 | 2.0 | 0.00 | 0.00 | 0.00 | 39 | 1011.0 |
| 20260502102038 | 76 | 210 | 2.0 | 2.0 | 0.00 | 0.00 | 0.00 | 41 | 1011.0 |
| 20260502101038 | 74 | 216 | 0.0 | 0.0 | 0.00 | 0.00 | 0.00 | 40 | 1011.0 |
| 20260502091038 | 71 | 210 | 2.0 | 2.0 | 0.00 | 0.00 | 0.00 | 41 | 1011.0 |
| 20260502071038 | 65 | 246 | 0.0 | 0.0 | 0.00 | 0.00 | 0.00 | 46 | 1012.0 |
| 20260502070038 | 64 | 279 | 1.0 | 1.0 | 0.00 | 0.00 | 0.00 | 48 | 1012.0 |
| 20260502065038 | 63 | 324 | 0.0 | 0.0 | 0.00 | 0.00 | 0.00 | 49 | 1012.0 |
| 20260502064038 | 62 | 224 | 2.0 | 2.0 | 0.00 | 0.00 | 0.00 | 49 | 1012.0 |
| 20260502063038 | 61 | 214 | 2.0 | 2.0 | 0.00 | 0.00 | 0.00 | 49 | 1012.0 |
| 20260502062038 | 60 | 234 | 2.0 | 2.0 | 0.00 | 0.00 | 0.00 | 48 | 1012.0 |
| 20260502061038 | 60 | 231 | 3.0 | 3.0 | 0.00 | 0.00 | 0.00 | 49 | 1012.0 |
| 20260502060038 | 58 | 258 | 2.0 | 2.0 | 0.00 | 0.00 | 0.00 | 51 | 1012.0 |
| 20260502055038 | 56 | 210 | 2.0 | 2.0 | 0.00 | 0.00 | 0.00 | 55 | 1012.0 |
| 20260502054038 | 56 | 240 | 0.0 | 0.0 | 0.00 | 0.00 | 0.00 | 61 | 1013.0 |
| 20260502053038 | 55 | 204 | 2.0 | 2.0 | 0.00 | 0.00 | 0.00 | 60 | 1012.0 |
| 20260502052038 | 56 | 213 | 2.0 | 2.0 | 0.00 | 0.00 | 0.00 | 57 | 1012.0 |
| 20260502051038 | 57 | 230 | 0.0 | 0.0 | 0.00 | 0.00 | 0.00 | 56 | 1012.0 |
| 20260502050038 | 57 | 204 | 2.0 | 2.0 | 0.00 | 0.00 | 0.00 | 54 | 1012.0 |
| 20260502045038 | 57 | 229 | 2.0 | 2.0 | 0.00 | 0.00 | 0.00 | 52 | 1012.0 |
| 20260502044038 | 58 | 228 | 0.0 | 0.0 | 0.00 | 0.00 | 0.00 | 51 | 1012.0 |
| 20260502043038 | 58 | 204 | 0.0 | 0.0 | 0.00 | 0.00 | 0.00 | 50 | 1012.0 |
| 20260502042038 | 58 | 210 | 2.0 | 2.0 | 0.00 | 0.00 | 0.00 | 49 | 1012.0 |
| 20260502041038 | 58 | 243 | 1.0 | 1.0 | 0.00 | 0.00 | 0.00 | 49 | 1012.0 |
| 20260502040038 | 58 | 236 | 5.0 | 5.0 | 0.00 | 0.00 | 0.00 | 49 | 1012.0 |
| 20260502035038 | 57 | 228 | 2.0 | 2.0 | 0.00 | 0.00 | 0.00 | 51 | 1012.0 |
| 20260502034038 | 56 | 294 | 3.0 | 3.0 | 0.00 | 0.00 | 0.00 | 53 | 1012.0 |
| 20260502033038 | 54 | 212 | 0.0 | 0.0 | 0.00 | 0.00 | 0.00 | 59 | 1012.0 |
| 20260502032038 | 53 | 216 | 0.0 | 0.0 | 0.00 | 0.00 | 0.00 | 61 | 1012.0 |
| 20260502031038 | 54 | 216 | 0.0 | 0.0 | 0.00 | 0.00 | 0.00 | 61 | 1012.0 |
| 20260502030038 | 54 | 216 | 0.0 | 0.0 | 0.00 | 0.00 | 0.00 | 60 | 1012.0 |
| 20260502025038 | 56 | 216 | 0.0 | 0.0 | 0.00 | 0.00 | 0.00 | 57 | 1012.0 |
| 20260502024038 | 57 | 274 | 0.0 | 0.0 | 0.00 | 0.00 | 0.00 | 54 | 1012.0 |
| 20260502023038 | 58 | 222 | 2.0 | 2.0 | 0.00 | 0.00 | 0.00 | 52 | 1012.0 |
| 20260502022038 | 58 | 228 | 0.0 | 0.0 | 0.00 | 0.00 | 0.00 | 53 | 1012.0 |
| 20260502021038 | 58 | 258 | 2.0 | 2.0 | 0.00 | 0.00 | 0.00 | 52 | 1012.0 |
| 20260502020038 | 58 | 240 | 0.0 | 0.0 | 0.00 | 0.00 | 0.00 | 52 | 1012.0 |
| 20260502015038 | 58 | 192 | 1.0 | 1.0 | 0.00 | 0.00 | 0.00 | 51 | 1012.0 |
| 20260502014038 | 59 | 168 | 2.0 | 2.0 | 0.00 | 0.00 | 0.00 | 50 | 1013.0 |
| 20260502013038 | 58 | 237 | 2.0 | 2.0 | 0.00 | 0.00 | 0.00 | 51 | 1013.0 |
| 20260502012038 | 57 | 224 | 0.0 | 0.0 | 0.00 | 0.00 | 0.00 | 52 | 1013.0 |
| 20260502011038 | 56 | 216 | 0.0 | 0.0 | 0.00 | 0.00 | 0.00 | 58 | 1013.0 |
| 20260502010038 | 54 | 242 | 0.0 | 0.0 | 0.00 | 0.00 | 0.00 | 61 | 1013.0 |
| 20260502005038 | 54 | 242 | 0.0 | 0.0 | 0.00 | 0.00 | 0.00 | 62 | 1013.0 |
| 20260502004038 | 54 | 242 | 0.0 | 0.0 | 0.00 | 0.00 | 0.00 | 61 | 1013.0 |
| 20260502003038 | 55 | 242 | 0.0 | 0.0 | 0.00 | 0.00 | 0.00 | 59 | 1013.0 |
| 20260502002038 | 56 | 242 | 0.0 | 0.0 | 0.00 | 0.00 | 0.00 | 54 | 1013.0 |
| 20260502001038 | 55 | 242 | 0.0 | 0.0 | 0.00 | 0.00 | 0.00 | 58 | 1013.0 |
| 20260502000038 | 55 | 242 | 0.0 | 0.0 | 0.00 | 0.00 | 0.00 | 59 | 1013.0 |
| 20260501235038 | 55 | 242 | 0.0 | 0.0 | 0.00 | 0.00 | 0.00 | 59 | 1013.0 |
| 20260501234038 | 54 | 242 | 0.0 | 0.0 | 0.00 | 0.00 | 0.00 | 62 | 1013.0 |
| 20260501233038 | 54 | 242 | 0.0 | 0.0 | 0.00 | 0.00 | 0.00 | 63 | 1014.0 |
| 20260501232038 | 55 | 242 | 0.0 | 0.0 | 0.00 | 0.00 | 0.00 | 61 | 1014.0 |
| 20260501231038 | 58 | 242 | 0.0 | 0.0 | 0.00 | 0.00 | 0.00 | 54 | 1013.0 |
| 20260501230038 | 60 | 242 | 2.0 | 2.0 | 0.00 | 0.00 | 0.00 | 48 | 1014.0 |
| 20260501225038 | 60 | 216 | 0.0 | 0.0 | 0.00 | 0.00 | 0.00 | 48 | 1014.0 |
| 20260501224038 | 61 | 216 | 2.0 | 2.0 | 0.00 | 0.00 | 0.00 | 46 | 1014.0 |
| 20260501223038 | 62 | 216 | 0.0 | 0.0 | 0.00 | 0.00 | 0.00 | 45 | 1014.0 |
| 20260501222038 | 62 | 200 | 0.0 | 0.0 | 0.00 | 0.00 | 0.00 | 43 | 1014.0 |
| 20260501221038 | 62 | 216 | 2.0 | 2.0 | 0.00 | 0.00 | 0.00 | 43 | 1014.0 |
| 20260501220038 | 63 | 254 | 0.0 | 0.0 | 0.00 | 0.00 | 0.00 | 43 | 1014.0 |
| 20260501215038 | 63 | 254 | 1.0 | 1.0 | 0.00 | 0.00 | 0.00 | 41 | 1014.0 |
| 20260501214038 | 63 | 216 | 2.0 | 2.0 | 0.00 | 0.00 | 0.00 | 41 | 1014.0 |
| 20260501213038 | 62 | 230 | 0.0 | 0.0 | 0.00 | 0.00 | 0.00 | 42 | 1014.0 |
| 20260501212038 | 61 | 222 | 0.0 | 0.0 | 0.00 | 0.00 | 0.00 | 43 | 1014.0 |
| 20260501211038 | 59 | 222 | 2.0 | 2.0 | 0.00 | 0.00 | 0.00 | 46 | 1014.0 |
| 20260501210038 | 58 | 222 | 0.0 | 0.0 | 0.00 | 0.00 | 0.00 | 51 | 1014.0 |
| 20260501205038 | 58 | 222 | 0.0 | 0.0 | 0.00 | 0.00 | 0.00 | 51 | 1014.0 |
| 20260501204038 | 60 | 222 | 0.0 | 0.0 | 0.00 | 0.00 | 0.00 | 48 | 1014.0 |
| 20260501203038 | 62 | 222 | 0.0 | 0.0 | 0.00 | 0.00 | 0.00 | 43 | 1014.0 |
| 20260501202038 | 64 | 222 | 0.0 | 0.0 | 0.00 | 0.00 | 0.00 | 40 | 1014.0 |
| 20260501201038 | 63 | 219 | 1.0 | 1.0 | 0.00 | 0.00 | 0.00 | 41 | 1014.0 |
| 20260501200038 | 64 | 219 | 0.0 | 0.0 | 0.00 | 0.00 | 0.00 | 39 | 1014.0 |
| 20260501195038 | 63 | 218 | 0.0 | 0.0 | 0.00 | 0.00 | 0.00 | 41 | 1014.0 |
| 20260501194038 | 62 | 218 | 0.0 | 0.0 | 0.00 | 0.00 | 0.00 | 41 | 1014.0 |
| 20260501193038 | 62 | 218 | 0.0 | 0.0 | 0.00 | 0.00 | 0.00 | 43 | 1014.0 |
| 20260501192038 | 63 | 218 | 0.0 | 0.0 | 0.00 | 0.00 | 0.00 | 42 | 1014.0 |
| 20260501191038 | 63 | 218 | 0.0 | 0.0 | 0.00 | 0.00 | 0.00 | 41 | 1014.0 |
| 20260501190038 | 63 | 218 | 0.0 | 0.0 | 0.00 | 0.00 | 0.00 | 42 | 1014.0 |
| 20260501185038 | 64 | 218 | 0.0 | 0.0 | 0.00 | 0.00 | 0.00 | 43 | 1014.0 |
| 20260501184038 | 64 | 218 | 0.0 | 0.0 | 0.00 | 0.00 | 0.00 | 42 | 1014.0 |
| 20260501183038 | 66 | 218 | 0.0 | 0.0 | 0.00 | 0.00 | 0.00 | 37 | 1014.0 |
| 20260501182038 | 67 | 218 | 0.0 | 0.0 | 0.00 | 0.00 | 0.00 | 34 | 1014.0 |
| 20260501181038 | 68 | 218 | 0.0 | 0.0 | 0.00 | 0.00 | 0.00 | 34 | 1014.0 |
| 20260501180038 | 69 | 218 | 0.0 | 0.0 | 0.00 | 0.00 | 0.00 | 33 | 1014.0 |
| 20260501175038 | 69 | 162 | 0.0 | 0.0 | 0.00 | 0.00 | 0.00 | 33 | 1014.0 |
| 20260501174038 | 70 | 245 | 0.0 | 0.0 | 0.00 | 0.00 | 0.00 | 32 | 1014.0 |
| 20260501173038 | 70 | 196 | 2.0 | 2.0 | 0.00 | 0.00 | 0.00 | 31 | 1014.0 |
| 20260501172038 | 71 | 228 | 2.0 | 2.0 | 0.00 | 0.00 | 0.00 | 30 | 1014.0 |
| 20260501171038 | 71 | 226 | 3.0 | 3.0 | 0.00 | 0.00 | 0.00 | 30 | 1014.0 |
| 20260501170038 | 71 | 307 | 2.0 | 2.0 | 0.00 | 0.00 | 0.00 | 29 | 1014.0 |
| 20260501165038 | 71 | 235 | 2.0 | 2.0 | 0.00 | 0.00 | 0.00 | 28 | 1014.0 |
| 20260501164038 | 72 | 263 | 4.0 | 4.0 | 0.00 | 0.00 | 0.00 | 28 | 1014.0 |
| 20260501163038 | 72 | 258 | 2.0 | 2.0 | 0.00 | 0.00 | 0.00 | 29 | 1014.0 |
| 20260501162038 | 72 | 300 | 2.0 | 2.0 | 0.00 | 0.00 | 0.00 | 29 | 1014.0 |
| 20260501161038 | 72 | 227 | 2.0 | 2.0 | 0.00 | 0.00 | 0.00 | 28 | 1014.0 |
| 20260501160038 | 72 | 203 | 6.0 | 6.0 | 0.00 | 0.00 | 0.00 | 27 | 1014.0 |
| 20260501155038 | 72 | 252 | 4.0 | 5.0 | 0.00 | 0.00 | 0.00 | 27 | 1014.0 |
| 20260501154038 | 72 | 221 | 0.0 | 0.0 | 0.00 | 0.00 | 0.00 | 28 | 1014.0 |
| 20260501153038 | 72 | 252 | 4.0 | 4.0 | 0.00 | 0.00 | 0.00 | 28 | 1015.0 |
| 20260501152038 | 73 | 250 | 2.0 | 2.0 | 0.00 | 0.00 | 0.00 | 27 | 1015.0 |
| 20260501151038 | 73 | 144 | 3.0 | 4.0 | 0.00 | 0.00 | 0.00 | 27 | 1015.0 |
| 20260501150038 | 73 | 204 | 2.0 | 2.0 | 0.00 | 0.00 | 0.00 | 26 | 1015.0 |